Location: Laterina
(43.5167°N, 11.7167°E)
Time: 13:08:10
(UTC+00:00)

Cosmos 2026 Rocket - Pass Details

Date: 17 January 2021
Orbit: 940 x 1000 km, 82.9° (Epoch: 28 February)

Event Time Altitude Azimuth Distance (km) Brightness Sun altitude
Rises 04:49:25 0° 1° (N) 3,695 6.9 -20.1°
Reaches altitude 10° 04:52:20 10° 12° (NNE) 2,752 6.4 -19.5°
Maximum altitude 04:57:43 29° 71° (ENE) 1,743 5.9 -18.6°
Drops below altitude 10° 05:03:07 10° 130° (SE) 2,761 7.3 -17.6°
Sets 05:06:01 0° 141° (SE) 3,709 7.9 -17.1°
